Probability
0 0 0 0 0 0 0 0 0 0 0 0 0 0 0 0 0 0 0 0 0 0 0 0 0 0 0 0 0 0 0 0 0 0 0 0 0 0 0 0 0 0 0
0 0 0 0 0 0 0 0 0 0 0 0 0 0 0 0 0 0 0 0 0 0 0 0 0 0 0 0 0 0 0 0 0 0 0 0 0 0 0 0 0 0 0
0 0 0 0 0 0 0 0 0 0 0 0 0 0 0 0 0 0 0 0 0 0 0 0 0 0 0 0 0 0 0 0 0 0 0 0 0 0 0 0 0 0 0
0 0 0 0 0 0 0 0 0 0 0 0 0 0 0 0 0 0 0 0 0 0 0 0 0 0 0 0 0 0 0 0 0 0 0 0 0 0 0 0 0 0 0
0 0 0 0 0 0 0 0 0 0 0 0 0 0 0 0 0 0 0 0 0 0 0 0 0 0 0 0 0 0 0 0 0 0 0 0 0 0 0 0 0 0 0
0 0 0 0 0 0 0 0 0 0 0 0 0 0 0 0 0 0 0 0 0 0 0 0 0 0 0 0 0 0 0 0 0 0 0 0 0 0 0 0 0 0 0
0 0 0 0 0 0 0 0 0 0 0 0 0 0 0 0 0 0 0 0 0 0 0 0 0 0 0 0 0 0 0 0 0 0 0 0 0 0 0 0 0 0 0
0 0 0 0 0 0 0 0 0 0 0 0 0 0 0 0 0 0 0 0 0 0 0 0 0 0 0 0 0 0 0 0 0 0 0 0 0 0 0 0 0 0 0
0 0 0 0 0 0 0 0 0 0 0 0 0 0 0 0 0 0 0 0 0 0 0 0 0 0 0 0 0 0 0 0 0 0 0 0 0 0 0 0 0 0 0
0 0 0 0 0 0 0 0 0 0 0 0 0 0 0 0 0 0 0 0 0 0 0 0 0 0 0 0 0 0 0 0 0 0 0 0 0 0 0 0 0 0 0
0 0 0 0 0 0 0 0 0 0 0 0 0 0 0 0 0 0 0 0 0 0 0 0 0 0 0 0 0 0 0 0 0 0 0 0 0 0 0 0 0 0 0
0 0 0 0 0 0 0 0 0 0 0 0 0 0 0 0 0 0 0 0 0 0 0 0 0 0 0 0 0 0 0 0 0 0 0 0 0 0 0 0 0 0 0
0 0 0 0 0 0 0 0 0 0 0 0 0 0 0 0 0 0 0 0 0 0 0 0 0 0 0 0 0 0 0 0 0 0 0 0 0 0 0 0 0 0 0
0 0 0 0 0 0 0 0 0 0 0 0 0 0 0 0 0 0 0 0 0 0 0 0 0 0 0 0 0 0 0 0 0 0 0 0 0 0 0 0 0 0 0
0 0 0 0 0 0 0 0 0 0 0 0 0 0 0 0 0 0 0 0 0 0 0 0 0 0 0 0 0 0 0 0 0 0 0 0 0 0 0 0 0 0 0
0 0 0 0 0 0 0 0 0 0 0 0 0 0 0 0 0 0 0 0 0 0 0 0 0 0 0 0 0 0 0 0 0 0 0 0 0 0 0 0 0 0 0
0 0 0 0 0 0 0 0 0 0 0 0 0 0 0 0 0 0 0 0 0 0 0 0 0 0 0 0 0 0 0 0 0 0 0 0 0 0 0 0 0 0 0
0 0 0 0 0 0 0 0 0 0 0 0 0 0 0 0 0 0 0 0 0 0 0 0 0 0 0 0 0 0 0 0 0 0 0 0 0 0 0 0 0 0 0
0 0 0 0 0 0 0 0 0 0 0 0 0 0 0 0 0 0 0 0 0 0 0 0 0 0 0 0 0 0 0 0 0 0 0 0 0 0 0 0 0 0 0
0 0 0 0 0 0 0 0 0 0 0 0 0 0 0 0 0 0 0 0 0 0 0 0 0 0 0 0 0 0 0 0 0 0 0 0 0 0 0 0 0 0 0
0 0 0 0 0 0 0 0 0 0 0 0 0 0 0 0 0 0 0 0 0 0 0 0 0 0 0 0 0 0 0 0 0 0 0 0 0 0 0 0 0 0 0
0 0 0 0 0 0 0 0 0 0 0 0 0 0 0 0 0 0 0 0 0 0 0 0 0 0 0 0 0 0 0 0 0 0 0 0 0 0 0 0 0 0 0
0 0 0 0 0 0 0 0 0 0 0 0 0 0 0 0 0 0 0 0 0 0 0 0 0 0 0 0 0 0 0 0 0 0 0 0 0 0 0 0 0 0 0
0 0 0 0 0 0 0 0 0 0 0 0 0 0 0 0 0 0 0 0 0 0 0 0 0 0 0 0 0 0 0 0 0 0 0 0 0 0 0 0 0 0 0
0 0 0 0 0 0 0 0 0 0 0 0 0 0 0 0 0 0 0 0 0 0 0 0 0 0 0 0 0 0 0 0 0 0 0 0 0 0 0 0 0 0 0
0 0 0 0 0 0 0 0 0 0 0 0 0 0 0 0 0 0 0 0 0 0 0 0 0 0 0 0 0 0 0 0 0 0 0 0 0 0 0 0 0 0 0
Height
5654 5660 5666 5672 5677 5683 5688 5693 5698 5702 5707 5711 5715 5719 5723 5726 5729 5732 5735 5738 5741 5743 5746 5748 5750 5752 5753 5755 5756 5757 5758 5759 5760 5761 5761 5761 5761 5761 5761 5761 5761 5760 5760
5642 5649 5655 5661 5666 5672 5677 5682 5687 5691 5696 5700 5705 5709 5712 5716 5719 5721 5724 5727 5730 5733 5735 5738 5740 5742 5743 5745 5746 5747 5748 5749 5750 5751 5751 5751 5751 5751 5751 5751 5751 5750 5749
5631 5637 5643 5649 5655 5661 5666 5671 5675 5680 5685 5689 5693 5698 5701 5705 5708 5711 5714 5717 5719 5722 5724 5727 5729 5731 5733 5734 5736 5737 5738 5739 5740 5741 5741 5741 5741 5741 5741 5741 5740 5740 5739
5620 5626 5632 5638 5644 5649 5654 5659 5664 5669 5673 5678 5682 5686 5690 5693 5696 5699 5703 5705 5708 5711 5713 5716 5718 5720 5722 5723 5725 5726 5727 5728 5729 5730 5730 5731 5731 5731 5731 5730 5730 5729 5728
5608 5615 5621 5626 5632 5637 5643 5648 5653 5657 5662 5666 5670 5674 5678 5682 5685 5688 5691 5694 5697 5699 5702 5704 5706 5708 5710 5712 5714 5715 5716 5717 5718 5718 5719 5719 5719 5719 5719 5718 5718 5717 5716
5597 5603 5609 5615 5620 5626 5631 5636 5641 5645 5650 5654 5658 5662 5666 5669 5672 5675 5678 5682 5685 5687 5690 5692 5695 5697 5699 5700 5702 5703 5704 5705 5706 5707 5707 5708 5708 5707 5707 5706 5706 5705 5705
5585 5591 5597 5603 5608 5614 5619 5624 5629 5633 5638 5642 5646 5650 5654 5657 5660 5663 5666 5669 5672 5675 5678 5680 5682 5684 5686 5688 5689 5690 5692 5693 5694 5695 5696 5696 5696 5696 5695 5695 5693 5693 5692
5573 5579 5585 5590 5596 5601 5607 5612 5617 5621 5626 5630 5634 5637 5641 5644 5647 5650 5653 5656 5660 5662 5665 5667 5669 5671 5673 5675 5677 5678 5679 5681 5682 5683 5684 5684 5683 5683 5683 5682 5681 5681 5680
5561 5567 5572 5578 5583 5589 5594 5599 5604 5609 5613 5617 5621 5624 5628 5632 5635 5638 5641 5644 5647 5649 5652 5654 5656 5659 5661 5662 5664 5666 5667 5668 5668 5669 5670 5671 5671 5670 5670 5669 5669 5668 5668
5549 5554 5560 5565 5571 5576 5582 5587 5591 5596 5600 5604 5608 5612 5615 5619 5622 5625 5628 5631 5634 5637 5639 5641 5644 5646 5647 5649 5650 5652 5654 5655 5656 5657 5657 5658 5658 5658 5657 5656 5656 5655 5654
5537 5542 5548 5553 5559 5564 5569 5574 5579 5583 5588 5592 5596 5599 5603 5606 5609 5612 5615 5617 5620 5623 5626 5628 5630 5632 5634 5635 5637 5639 5640 5642 5643 5643 5644 5645 5644 5644 5644 5643 5642 5642 5641
5526 5531 5536 5541 5546 5551 5557 5561 5566 5571 5575 5579 5582 5586 5590 5593 5596 5599 5602 5604 5607 5610 5612 5615 5617 5619 5620 5622 5623 5625 5627 5628 5629 5630 5631 5631 5631 5631 5631 5630 5629 5628 5627
5515 5519 5524 5529 5534 5539 5544 5549 5554 5558 5562 5566 5570 5573 5577 5580 5583 5585 5588 5591 5593 5596 5598 5601 5603 5605 5606 5608 5610 5611 5613 5614 5615 5616 5617 5618 5618 5618 5617 5616 5615 5614 5613
5505 5509 5514 5519 5524 5528 5533 5537 5541 5545 5549 5553 5557 5560 5564 5567 5569 5572 5575 5577 5579 5582 5585 5587 5589 5591 5592 5594 5596 5598 5599 5601 5602 5603 5603 5604 5604 5604 5603 5602 5601 5600 5599
5496 5500 5504 5509 5513 5517 5521 5525 5529 5533 5537 5541 5544 5547 5551 5554 5556 5559 5561 5564 5566 5568 5571 5573 5575 5577 5579 5581 5582 5584 5585 5587 5587 5588 5589 5590 5590 5590 5589 5588 5587 5586 5585
5488 5492 5495 5499 5503 5507 5510 5514 5517 5521 5525 5528 5531 5535 5537 5540 5543 5545 5548 5550 5552 5555 5557 5560 5562 5564 5566 5568 5569 5571 5572 5573 5574 5574 5575 5575 5575 5575 5575 5574 5573 5571 5570
5480 5483 5487 5490 5493 5497 5500 5504 5507 5510 5513 5516 5519 5522 5525 5528 5530 5533 5535 5537 5539 5541 5544 5546 5549 5551 5553 5555 5556 5557 5558 5559 5560 5560 5561 5561 5561 5561 5560 5559 5558 5556 5555
5471 5475 5478 5481 5484 5487 5490 5493 5497 5500 5503 5505 5508 5510 5513 5515 5518 5520 5522 5524 5527 5529 5531 5533 5536 5538 5539 5541 5543 5544 5545 5546 5546 5547 5547 5547 5547 5546 5545 5544 5543 5541 5539
5462 5466 5469 5472 5474 5477 5480 5483 5486 5489 5492 5494 5497 5499 5501 5503 5506 5508 5510 5512 5514 5516 5518 5520 5522 5524 5526 5528 5529 5530 5531 5532 5533 5533 5533 5533 5532 5531 5531 5529 5528 5526 5524
5453 5456 5459 5462 5465 5467 5470 5473 5475 5478 5481 5483 5486 5488 5490 5492 5494 5496 5498 5500 5502 5504 5506 5508 5509 5511 5513 5514 5515 5516 5517 5518 5519 5519 5519 5518 5518 5517 5516 5515 5513 5511 5509
5444 5446 5449 5452 5455 5457 5460 5462 5465 5467 5470 5472 5474 5476 5478 5480 5482 5484 5486 5487 5489 5491 5493 5495 5497 5498 5499 5501 5502 5503 5503 5504 5505 5505 5504 5504 5503 5502 5501 5500 5498 5496 5494
5435 5438 5440 5442 5445 5447 5449 5452 5454 5456 5459 5461 5463 5465 5467 5469 5470 5472 5474 5476 5477 5479 5481 5482 5484 5485 5486 5487 5488 5489 5490 5490 5491 5491 5490 5490 5489 5488 5487 5485 5484 5482 5480
5427 5429 5431 5433 5435 5437 5439 5442 5444 5446 5448 5450 5452 5454 5456 5457 5459 5461 5463 5464 5466 5467 5469 5470 5471 5472 5474 5475 5475 5476 5477 5477 5477 5477 5477 5476 5475 5474 5472 5471 5469 5468 5466
5420 5422 5423 5425 5427 5429 5431 5433 5434 5436 5438 5440 5442 5444 5446 5447 5449 5450 5452 5453 5455 5456 5457 5458 5459 5460 5461 5462 5463 5463 5463 5464 5464 5463 5463 5462 5461 5460 5459 5457 5456 5454 5452
5412 5414 5416 5418 5419 5421 5423 5424 5426 5427 5429 5431 5433 5434 5436 5437 5439 5440 5442 5443 5444 5445 5446 5447 5448 5449 5450 5451 5451 5451 5451 5451 5450 5450 5449 5448 5447 5447 5445 5444 5443 5441 5440
5404 5406 5408 5410 5412 5413 5415 5416 5418 5419 5421 5422 5424 5426 5427 5428 5430 5431 5432 5433 5434 5435 5436 5437 5438 5438 5439 5439 5439 5439 5439 5438 5438 5437 5436 5436 5435 5434 5433 5432 5431 5429 5428
Wind_Speed
55 54 54 54 53 53 52 50 50 50 49 48 47 47 45 44 44 43 43 43 43 42 42 41 40 40 39 39 39 38 38 38 38 37 37 37 38 38 38 39 39 39 39
54 54 54 54 53 53 52 52 51 50 50 49 49 47 46 45 44 44 44 44 44 44 43 42 42 41 40 40 40 40 40 39 39 39 38 38 39 40 40 40 40 40 41
54 54 54 54 53 53 53 52 52 51 51 50 49 48 48 47 46 45 45 45 45 45 44 44 43 43 42 42 42 41 41 41 40 40 40 41 41 42 42 42 42 43 43
55 54 54 53 53 53 53 53 52 52 51 51 50 50 49 48 48 47 46 46 46 46 46 45 45 44 44 44 44 43 43 42 42 42 42 43 43 44 44 44 44 45 45
55 55 54 54 53 53 53 52 53 52 52 52 52 51 51 49 49 49 48 47 47 47 47 46 46 46 46 46 45 45 45 44 44 43 43 43 44 44 45 45 46 46 46
55 55 55 55 54 53 53 53 53 52 52 52 52 52 51 51 50 50 50 49 48 48 47 47 47 47 47 47 47 46 46 45 44 44 44 44 44 45 45 45 46 46 46
54 54 55 55 54 54 53 53 53 53 53 52 52 52 52 51 51 50 50 50 50 49 48 48 48 48 48 48 48 47 46 47 46 46 45 45 46 45 45 46 45 45 46
53 54 54 55 55 54 53 53 52 52 51 51 51 52 52 52 52 51 51 51 51 50 49 49 49 48 49 48 48 48 48 48 47 47 47 46 46 46 46 46 46 46 46
51 52 52 53 53 54 54 53 52 52 51 51 52 52 52 52 52 52 52 51 51 51 50 49 49 49 48 49 49 49 48 48 48 48 47 47 47 47 47 47 47 47 46
51 51 52 52 52 52 52 53 53 52 52 51 52 51 51 51 51 51 52 52 51 51 50 50 50 50 49 49 50 49 49 48 49 49 48 48 48 48 48 48 48 47 47
49 50 51 52 52 52 51 51 51 51 51 52 52 51 51 50 50 50 50 50 50 50 50 50 50 50 50 50 50 50 49 49 49 49 49 49 49 49 49 49 49 49 49
45 47 48 49 50 50 51 50 50 50 50 51 51 51 50 50 50 50 50 50 50 50 51 51 51 51 51 51 50 50 50 49 49 49 49 49 49 49 49 49 50 50 49
43 44 46 47 47 48 48 49 49 50 50 50 50 50 50 50 49 49 49 50 50 50 50 50 50 51 51 51 51 51 51 50 50 50 50 49 49 49 50 49 49 50 49
40 41 42 44 45 46 46 47 48 48 49 48 49 49 49 49 49 49 49 49 50 50 50 50 49 49 50 50 50 50 50 50 50 50 50 50 50 49 49 49 49 50 50
37 38 40 41 42 43 44 45 45 46 46 47 47 47 48 48 48 49 49 49 49 49 50 50 49 49 49 49 49 49 49 49 50 50 50 50 50 50 50 50 51 51 52
35 36 37 38 39 40 41 42 42 43 44 45 46 46 46 46 46 46 47 47 48 48 48 48 48 48 47 47 47 47 47 48 48 49 49 49 50 50 51 51 52 53 53
34 35 36 37 37 38 39 39 40 41 41 42 42 43 44 44 44 44 45 45 46 47 47 46 46 46 46 46 46 46 46 47 47 48 49 49 50 51 51 52 53 54 54
33 34 35 36 37 38 38 38 39 39 40 40 41 41 42 42 43 44 44 44 44 45 45 45 45 45 46 46 46 46 47 47 47 48 49 49 50 51 52 52 53 53 54
33 34 34 35 36 37 38 38 38 39 39 40 40 41 41 42 42 43 44 44 44 44 44 45 45 46 46 46 47 47 48 48 49 49 50 50 51 51 52 52 52 52 52
32 34 35 36 36 37 38 38 39 39 39 40 40 41 41 42 42 42 43 43 44 44 44 44 45 45 46 46 47 47 48 48 48 49 49 49 50 50 50 50 50 50 51
30 32 34 35 36 36 37 38 38 38 39 39 40 41 41 42 42 42 42 42 43 43 43 44 45 45 45 45 46 46 46 46 46 47 47 48 48 48 49 49 49 50 50
28 30 31 33 34 35 35 36 36 37 37 37 38 39 40 40 40 40 40 40 40 41 42 43 43 44 43 44 44 44 45 45 45 45 46 46 47 48 48 48 49 49 50
27 27 28 29 31 32 33 33 34 35 35 35 35 36 37 37 37 37 37 37 38 40 41 42 42 42 42 41 42 42 43 44 45 45 46 46 46 47 47 47 47 47 47
26 26 26 27 28 29 30 30 31 32 32 33 33 34 34 35 35 35 36 36 37 38 38 39 39 39 39 39 40 40 42 43 44 44 45 45 45 45 46 46 45 45 45
26 26 26 26 27 27 27 27 27 28 29 30 31 31 32 32 32 33 33 34 35 36 36 37 37 37 37 38 38 39 39 40 41 42 43 43 43 43 43 43 42 42 42
27 26 26 26 26 26 26 27 27 27 27 28 29 29 29 30 30 31 32 32 33 34 34 34 35 35 36 36 37 38 38 38 39 40 40 40 40 40 40 40 39 39 38
Wind_Direction
232 232 233 233 234 235 237 238 239 240 241 242 243 245 246 247 248 249 250 251 253 254 255 257 258 259 261 262 263 265 266 266 267 268 269 270 271 272 274 275 277 278 279
232 233 234 234 234 235 236 237 238 239 241 242 244 245 246 247 249 250 251 252 253 255 256 256 257 258 260 262 263 265 266 267 267 268 269 269 271 272 274 275 277 278 280
232 233 234 234 235 236 236 237 238 240 241 243 245 246 247 248 250 251 252 252 253 254 256 256 258 259 260 262 264 265 266 267 267 268 268 269 271 272 274 275 277 279 281
233 234 234 235 235 236 237 238 239 241 242 244 245 246 247 249 250 251 252 252 253 254 255 256 257 259 261 263 264 265 266 267 268 268 269 270 271 273 274 276 277 279 280
234 234 235 236 236 237 238 239 240 242 243 244 246 247 248 249 250 251 252 252 253 254 255 256 257 258 260 262 264 265 266 268 269 270 271 271 273 274 275 276 276 278 279
235 235 236 237 238 239 239 240 241 242 243 245 246 247 248 249 250 251 252 253 253 255 255 256 257 259 261 262 264 265 266 268 268 269 271 273 273 274 275 276 277 278 279
235 236 237 238 238 239 240 241 242 243 244 245 246 247 248 249 251 252 253 254 254 255 256 257 258 259 260 262 264 265 266 267 268 269 271 272 274 274 275 276 278 279 280
236 236 237 238 239 240 240 242 243 244 245 246 246 247 248 249 251 252 253 254 255 256 257 258 258 259 260 262 263 264 265 266 267 268 270 272 273 275 276 277 278 279 281
236 236 236 237 238 239 241 242 243 244 245 246 246 248 249 250 251 252 253 254 255 256 258 258 259 260 261 262 263 263 265 266 267 268 270 271 272 274 275 277 278 279 280
236 237 237 237 238 239 240 241 243 243 244 245 246 248 249 250 251 253 254 254 255 256 257 258 259 260 261 262 262 263 264 265 266 268 270 271 272 273 274 276 278 279 279
235 236 236 237 237 238 239 240 242 243 244 245 246 247 249 250 251 252 253 254 255 256 257 258 258 259 261 262 263 263 264 265 266 268 270 271 272 273 274 275 277 279 279
235 235 235 236 237 238 239 240 242 243 245 246 248 248 249 250 251 252 252 253 254 255 256 257 258 259 261 261 262 262 263 265 266 268 270 271 272 273 274 276 277 278 279
236 236 236 236 237 239 240 241 243 244 246 247 248 250 250 249 250 251 252 252 253 255 256 257 258 259 259 261 262 262 263 265 267 269 270 271 272 273 275 276 277 278 279
237 237 237 238 238 240 241 242 243 245 246 248 249 250 251 251 251 251 252 253 254 255 256 257 257 258 259 260 261 262 263 265 267 268 269 270 271 272 274 276 277 279 280
236 236 238 238 239 240 241 243 244 245 247 248 249 250 251 251 252 253 253 253 254 255 256 256 257 258 259 260 262 263 264 266 267 267 269 270 271 272 274 275 277 279 280
238 238 238 238 239 240 241 242 244 245 246 248 249 249 250 251 252 253 254 255 255 255 255 256 257 258 259 261 262 264 265 266 267 268 269 270 272 273 274 276 278 280 281
239 240 240 240 240 241 242 243 245 246 247 248 249 249 250 250 251 252 253 255 255 256 256 257 258 259 260 261 263 264 265 266 268 269 270 271 273 274 276 277 279 280 281
240 241 241 242 243 243 244 245 245 246 247 248 249 250 250 250 250 252 254 255 256 256 257 258 258 259 260 262 263 265 266 267 269 270 271 273 274 276 277 278 280 281 282
242 242 243 243 244 245 245 245 246 247 248 249 250 250 251 252 253 254 254 255 256 257 258 259 260 261 262 263 264 266 267 269 270 271 273 274 275 276 278 279 280 282 283
244 245 245 246 246 246 246 247 248 248 249 250 252 253 253 254 255 256 257 257 258 258 259 260 262 263 264 265 266 267 267 268 270 272 273 274 275 276 278 279 280 282 283
247 247 247 247 246 247 247 248 249 250 252 253 253 255 256 257 257 258 259 260 260 260 261 262 263 264 265 266 267 267 267 268 269 271 273 274 275 276 278 279 280 282 283
248 248 248 248 247 247 248 249 250 252 254 254 254 255 257 258 258 258 259 260 260 261 261 262 263 264 265 266 266 267 268 269 270 271 273 275 276 277 278 279 280 281 283
247 247 247 248 248 248 249 250 251 252 252 253 254 255 256 257 257 257 258 259 260 261 262 263 263 264 265 266 266 267 269 270 271 272 273 275 276 277 278 279 280 281 283
246 246 246 247 248 249 250 251 251 251 251 251 252 253 254 256 257 257 258 259 260 262 262 262 263 264 265 266 267 269 270 271 273 274 275 277 278 278 279 279 280 281 282
247 246 247 248 249 249 249 250 251 252 252 252 252 253 254 256 257 257 258 259 260 261 262 262 263 264 265 267 268 270 272 274 275 276 277 277 277 278 278 279 280 281 282
248 247 247 248 249 249 250 250 251 252 252 253 253 254 255 256 258 258 259 260 261 262 262 262 263 265 266 268 269 271 273 275 276 277 278 278 277 277 277 278 280 280 281